Wetterdaten: Freitag, 15.01.2016
Datum Zeit Auen-Temp. Temp gefhlt Luftfeuchte Luftdruck Regen Wind Richtung Richtung Taupunkt Windben
15.01.2016 00:00 -0,2 C -0,6 C 87 % 1009,3 hPa 0,0 mm 4,4 km/h (1 Bft) W-SW 247 -2,1 C 11,7 km/h (2 Bft)
15.01.2016 00:05 -0,2 C -0,7 C 87 % 1009,3 hPa 0,0 mm 5,2 km/h (1 Bft) NW 315 -2,1 C 4,7 km/h (1 Bft)
15.01.2016 00:10 -0,4 C -0,7 C 82 % 1009,3 hPa 0,0 mm 5,4 km/h (1 Bft) W-SW 247 -3,1 C 6,7 km/h (2 Bft)
15.01.2016 00:15 -0,4 C -0,9 C 86 % 1009,3 hPa 0,0 mm 5,2 km/h (1 Bft) W-SW 247 -2,4 C 11,4 km/h (2 Bft)
15.01.2016 00:20 -0,5 C -1,0 C 82 % 1009,2 hPa 0,0 mm 6,2 km/h (2 Bft) S-SW 202 -3,2 C 7,5 km/h (2 Bft)
15.01.2016 00:25 -0,5 C -1,3 C 86 % 1009,2 hPa 0,0 mm 7,0 km/h (2 Bft) W-NW 292 -2,5 C 16,6 km/h (3 Bft)
15.01.2016 00:30 -0,5 C -1,2 C 86 % 1009,2 hPa 0,0 mm 6,2 km/h (2 Bft) W-SW 247 -2,5 C 8,3 km/h (2 Bft)
15.01.2016 00:35 -0,6 C -1,2 C 82 % 1009,2 hPa 0,0 mm 6,2 km/h (2 Bft) W-NW 292 -3,3 C 5,4 km/h (1 Bft)
15.01.2016 00:40 -0,6 C -1,1 C 82 % 1009,3 hPa 0,0 mm 5,7 km/h (1 Bft) W 270 -3,3 C 6,2 km/h (2 Bft)
15.01.2016 00:45 -0,6 C -1,3 C 85 % 1009,3 hPa 0,0 mm 6,2 km/h (2 Bft) W-SW 247 -2,8 C 8,5 km/h (2 Bft)
15.01.2016 00:50 -0,8 C -1,5 C 81 % 1009,3 hPa 0,0 mm 8,3 km/h (2 Bft) W 270 -3,6 C 11,7 km/h (2 Bft)
15.01.2016 00:55 -0,8 C -1,8 C 81 % 1009,3 hPa 0,0 mm 10,6 km/h (2 Bft) S-SW 202 -3,6 C 22,5 km/h (4 Bft)
15.01.2016 01:00 -0,8 C -1,8 C 81 % 1009,6 hPa 0,0 mm 10,6 km/h (2 Bft) NW 315 -3,6 C 6,5 km/h (2 Bft)
15.01.2016 01:05 -0,8 C -1,9 C 80 % 1009,6 hPa 0,0 mm 10,1 km/h (2 Bft) S-SW 202 -3,8 C 12,4 km/h (3 Bft)
15.01.2016 01:10 -0,9 C -1,9 C 80 % 1009,6 hPa 0,0 mm 8,8 km/h (2 Bft) W-SW 247 -3,9 C 11,4 km/h (2 Bft)
15.01.2016 01:15 -1,1 C -2,0 C 79 % 1009,6 hPa 0,0 mm 8,3 km/h (2 Bft) S-SW 202 -4,3 C 9,6 km/h (2 Bft)
15.01.2016 01:20 -1,1 C -2,0 C 79 % 1009,3 hPa 0,0 mm 8,3 km/h (2 Bft) SW 225 -4,3 C 8,0 km/h (2 Bft)
15.01.2016 01:25 -1,3 C -2,1 C 79 % 1009,3 hPa 0,0 mm 6,7 km/h (2 Bft) W-NW 292 -4,5 C 10,9 km/h (2 Bft)
15.01.2016 01:30 -1,1 C -1,9 C 79 % 1009,3 hPa 0,0 mm 6,5 km/h (2 Bft) W-SW 247 -4,3 C 5,2 km/h (1 Bft)
15.01.2016 01:35 -1,1 C -1,9 C 79 % 1009,3 hPa 0,0 mm 6,2 km/h (2 Bft) W 270 -4,3 C 7,3 km/h (2 Bft)
15.01.2016 01:40 -1,0 C -1,8 C 79 % 1009,2 hPa 0,0 mm 6,2 km/h (2 Bft) W-SW 247 -4,2 C 9,3 km/h (2 Bft)
15.01.2016 01:45 -1,0 C -1,8 C 79 % 1009,2 hPa 0,0 mm 6,5 km/h (2 Bft) W 270 -4,2 C 9,3 km/h (2 Bft)
15.01.2016 01:50 -1,0 C -1,8 C 79 % 1009,2 hPa 0,0 mm 7,0 km/h (2 Bft) W 270 -4,2 C 6,5 km/h (2 Bft)
15.01.2016 01:55 -0,9 C -1,7 C 79 % 1009,2 hPa 0,0 mm 6,7 km/h (2 Bft) W-SW 247 -4,1 C 13,2 km/h (3 Bft)
15.01.2016 02:00 -0,9 C -1,6 C 78 % 1009,3 hPa 0,0 mm 6,5 km/h (2 Bft) W-NW 292 -4,2 C 9,1 km/h (2 Bft)
15.01.2016 02:05 -0,9 C -1,6 C 78 % 1009,3 hPa 0,0 mm 6,2 km/h (2 Bft) SW 225 -4,2 C 8,0 km/h (2 Bft)
15.01.2016 02:10 -0,9 C -1,6 C 78 % 1009,3 hPa 0,0 mm 6,0 km/h (2 Bft) W 270 -4,2 C 7,3 km/h (2 Bft)
15.01.2016 02:15 -0,9 C -1,5 C 77 % 1009,3 hPa 0,0 mm 5,4 km/h (1 Bft) SW 225 -4,4 C 8,3 km/h (2 Bft)
15.01.2016 02:20 -0,8 C -1,6 C 77 % 1009,0 hPa 0,0 mm 6,7 km/h (2 Bft) W 270 -4,3 C 14,8 km/h (3 Bft)
15.01.2016 02:25 -0,6 C -1,7 C 76 % 1009,0 hPa 0,0 mm 9,1 km/h (2 Bft) W 270 -4,3 C 8,0 km/h (2 Bft)
15.01.2016 02:30 -0,7 C -1,7 C 76 % 1009,0 hPa 0,0 mm 8,5 km/h (2 Bft) W-SW 247 -4,4 C 8,3 km/h (2 Bft)
15.01.2016 02:35 -0,9 C -1,9 C 75 % 1009,0 hPa 0,0 mm 9,1 km/h (2 Bft) W-NW 292 -4,8 C 9,6 km/h (2 Bft)
15.01.2016 02:40 -1,1 C -2,1 C 75 % 1008,7 hPa 0,0 mm 8,8 km/h (2 Bft) W-SW 247 -5,0 C 5,4 km/h (1 Bft)
15.01.2016 02:45 -1,3 C -2,1 C 75 % 1008,7 hPa 0,0 mm 7,0 km/h (2 Bft) S-SW 202 -5,1 C 12,2 km/h (2 Bft)
15.01.2016 02:50 -1,2 C -2,1 C 75 % 1008,7 hPa 0,0 mm 7,0 km/h (2 Bft) W-SW 247 -5,0 C 10,6 km/h (2 Bft)
15.01.2016 02:55 -1,2 C -2,2 C 74 % 1008,7 hPa 0,0 mm 7,8 km/h (2 Bft) NW 315 -5,2 C 7,3 km/h (2 Bft)
15.01.2016 03:00 -1,3 C -2,3 C 74 % 1008,8 hPa 0,0 mm 7,8 km/h (2 Bft) W-SW 247 -5,3 C 8,0 km/h (2 Bft)
15.01.2016 03:05 -1,3 C -2,5 C 73 % 1008,8 hPa 0,0 mm 8,8 km/h (2 Bft) W-SW 247 -5,5 C 17,6 km/h (3 Bft)
15.01.2016 03:10 -1,1 C -2,5 C 73 % 1008,8 hPa 0,0 mm 11,9 km/h (2 Bft) N-NW 337 -5,3 C 17,6 km/h (3 Bft)
15.01.2016 03:15 -1,4 C -2,4 C 74 % 1008,8 hPa 0,0 mm 13,5 km/h (3 Bft) N-NW 337 -5,4 C 25,1 km/h (4 Bft)
15.01.2016 03:20 -1,5 C -2,9 C 75 % 1008,7 hPa 0,0 mm 12,2 km/h (2 Bft) SW 225 -5,3 C 12,7 km/h (3 Bft)
15.01.2016 03:25 -1,7 C -2,9 C 76 % 1008,7 hPa 0,0 mm 9,6 km/h (2 Bft) W 270 -5,4 C 11,4 km/h (2 Bft)
15.01.2016 03:30 -1,8 C -2,9 C 76 % 1008,7 hPa 0,0 mm 8,8 km/h (2 Bft) SW 225 -5,5 C 11,9 km/h (2 Bft)
15.01.2016 03:35 -2,1 C -2,9 C 77 % 1008,7 hPa 0,0 mm 7,0 km/h (2 Bft) W 270 -5,6 C 6,2 km/h (2 Bft)
15.01.2016 03:40 -2,2 C -2,9 C 77 % 1008,5 hPa 0,0 mm 6,2 km/h (2 Bft) W-SW 247 -5,7 C 8,0 km/h (2 Bft)
15.01.2016 03:45 -2,3 C -2,7 C 77 % 1008,5 hPa 0,0 mm 3,9 km/h (1 Bft) W 270 -5,8 C 2,8 km/h (1 Bft)
15.01.2016 03:50 -2,2 C -2,5 C 77 % 1008,5 hPa 0,0 mm 2,6 km/h (1 Bft) W 270 -5,7 C 5,7 km/h (1 Bft)
15.01.2016 03:55 -1,7 C -2,1 C 78 % 1008,5 hPa 0,0 mm 2,8 km/h (1 Bft) NW 315 -5,0 C 8,0 km/h (2 Bft)
15.01.2016 04:00 -1,5 C -2,1 C 79 % 1008,7 hPa 0,0 mm 5,2 km/h (1 Bft) NW 315 -4,7 C 9,8 km/h (2 Bft)
15.01.2016 04:05 -1,6 C -2,4 C 80 % 1008,7 hPa 0,0 mm 7,5 km/h (2 Bft) W 270 -4,6 C 11,4 km/h (2 Bft)
15.01.2016 04:10 -1,6 C -2,5 C 81 % 1008,7 hPa 0,0 mm 8,3 km/h (2 Bft) SW 225 -4,4 C 19,9 km/h (4 Bft)
15.01.2016 04:15 -1,5 C -2,6 C 77 % 1008,7 hPa 0,0 mm 11,1 km/h (2 Bft) W 270 -5,0 C 15,0 km/h (3 Bft)
15.01.2016 04:20 -1,5 C -2,7 C 82 % 1008,7 hPa 0,0 mm 11,9 km/h (2 Bft) W 270 -4,2 C 7,0 km/h (2 Bft)
15.01.2016 04:25 -1,6 C -2,8 C 82 % 1008,7 hPa 0,0 mm 11,4 km/h (2 Bft) W 270 -4,3 C 25,9 km/h (4 Bft)
15.01.2016 04:30 -1,6 C -2,8 C 82 % 1008,7 hPa 0,0 mm 11,1 km/h (2 Bft) W-SW 247 -4,3 C 14,0 km/h (3 Bft)
15.01.2016 04:35 -1,6 C -2,8 C 83 % 1008,7 hPa 0,0 mm 10,6 km/h (2 Bft) W 270 -4,1 C 15,3 km/h (3 Bft)
15.01.2016 04:40 -1,6 C -2,7 C 83 % 1008,7 hPa 0,0 mm 10,4 km/h (2 Bft) W 270 -4,1 C 9,6 km/h (2 Bft)
15.01.2016 04:45 -1,6 C -2,6 C 82 % 1008,7 hPa 0,0 mm 9,1 km/h (2 Bft) W-NW 292 -4,3 C 26,2 km/h (4 Bft)
15.01.2016 04:50 -1,5 C -2,5 C 82 % 1008,7 hPa 0,0 mm 8,3 km/h (2 Bft) W 270 -4,2 C 16,1 km/h (3 Bft)
15.01.2016 04:55 -1,3 C -2,4 C 81 % 1008,7 hPa 0,0 mm 9,6 km/h (2 Bft) NW 315 -4,1 C 7,5 km/h (2 Bft)
15.01.2016 05:00 -1,3 C -2,3 C 80 % 1008,2 hPa 0,0 mm 9,6 km/h (2 Bft) W-NW 292 -4,3 C 15,3 km/h (3 Bft)
15.01.2016 05:05 -1,2 C -2,1 C 79 % 1008,2 hPa 0,0 mm 8,0 km/h (2 Bft) W-SW 247 -4,4 C 12,9 km/h (3 Bft)
15.01.2016 05:10 -1,1 C -2,0 C 78 % 1008,2 hPa 0,0 mm 7,8 km/h (2 Bft) W-NW 292 -4,4 C 15,8 km/h (3 Bft)
15.01.2016 05:15 -0,9 C -2,0 C 76 % 1008,2 hPa 0,0 mm 10,1 km/h (2 Bft) SW 225 -4,6 C 13,7 km/h (3 Bft)
15.01.2016 05:20 -0,9 C -2,0 C 75 % 1008,6 hPa 0,0 mm 10,9 km/h (2 Bft) SW 225 -4,8 C 17,1 km/h (3 Bft)
15.01.2016 05:25 -0,7 C -1,8 C 74 % 1008,6 hPa 0,0 mm 10,9 km/h (2 Bft) W-NW 292 -4,7 C 27,2 km/h (4 Bft)
15.01.2016 05:30 -0,7 C -1,9 C 73 % 1008,6 hPa 0,0 mm 11,1 km/h (2 Bft) W 270 -4,9 C 8,8 km/h (2 Bft)
15.01.2016 05:31 -0,6 C -1,7 C 72 % 1008,6 hPa 0,0 mm 10,9 km/h (2 Bft) SW 225 -5,0 C 19,4 km/h (3 Bft)
15.01.2016 05:35 -0,6 C -1,7 C 72 % 1008,6 hPa 0,0 mm 10,9 km/h (2 Bft) SW 225 -5,0 C 19,4 km/h (3 Bft)
15.01.2016 05:40 -0,7 C -1,7 C 72 % 1008,1 hPa 0,0 mm 9,3 km/h (2 Bft) W 270 -5,1 C 9,3 km/h (2 Bft)
15.01.2016 05:45 -0,7 C -1,6 C 71 % 1008,1 hPa 0,0 mm 8,5 km/h (2 Bft) W 270 -5,3 C 18,4 km/h (3 Bft)
15.01.2016 05:50 -0,8 C -1,6 C 71 % 1008,1 hPa 0,0 mm 7,8 km/h (2 Bft) W-NW 292 -5,4 C 4,4 km/h (1 Bft)
15.01.2016 05:55 -0,7 C -1,4 C 70 % 1008,1 hPa 0,0 mm 7,0 km/h (2 Bft) SW 225 -5,5 C 10,9 km/h (2 Bft)
15.01.2016 06:00 -0,7 C -1,4 C 69 % 1008,0 hPa 0,0 mm 7,5 km/h (2 Bft) W-SW 247 -5,7 C 9,3 km/h (2 Bft)
15.01.2016 06:05 -0,7 C -1,4 C 69 % 1008,0 hPa 0,0 mm 7,3 km/h (2 Bft) NW 315 -5,7 C 3,6 km/h (1 Bft)
15.01.2016 06:10 -0,8 C -1,2 C 69 % 1008,0 hPa 0,0 mm 5,4 km/h (1 Bft) W 270 -5,8 C 7,8 km/h (2 Bft)
15.01.2016 06:15 -0,6 C -1,2 C 68 % 1008,0 hPa 0,0 mm 6,2 km/h (2 Bft) SW 225 -5,8 C 11,9 km/h (2 Bft)
15.01.2016 06:20 -0,6 C -1,4 C 68 % 1008,0 hPa 0,0 mm 7,8 km/h (2 Bft) W-SW 247 -5,8 C 8,0 km/h (2 Bft)
15.01.2016 06:25 -0,8 C -1,3 C 68 % 1008,0 hPa 0,0 mm 6,0 km/h (2 Bft) W 270 -5,9 C 6,7 km/h (2 Bft)
15.01.2016 06:30 -0,7 C -1,1 C 68 % 1008,0 hPa 0,0 mm 4,7 km/h (1 Bft) W-NW 292 -5,9 C 10,4 km/h (2 Bft)
15.01.2016 06:35 -1,1 C -1,9 C 73 % 1008,0 hPa 0,0 mm 9,8 km/h (2 Bft) W 270 -5,3 C 29,0 km/h (5 Bft)
15.01.2016 06:40 -1,5 C -2,2 C 77 % 1008,5 hPa 0,0 mm 13,7 km/h (3 Bft) W 270 -5,0 C 14,8 km/h (3 Bft)
15.01.2016 06:45 -2,0 C -2,8 C 82 % 1008,5 hPa 0,0 mm 17,9 km/h (3 Bft) NW 315 -4,7 C 43,2 km/h (6 Bft)
15.01.2016 06:50 -2,1 C -3,1 C 82 % 1008,5 hPa 0,0 mm 18,6 km/h (3 Bft) W 270 -4,7 C 23,6 km/h (4 Bft)
15.01.2016 06:55 -2,4 C -3,4 C 82 % 1008,5 hPa 0,0 mm 16,3 km/h (3 Bft) S-SW 202 -5,0 C 10,4 km/h (2 Bft)
15.01.2016 07:00 -2,5 C -4,0 C 82 % 1008,3 hPa 0,0 mm 14,8 km/h (3 Bft) W-SW 247 -5,1 C 17,1 km/h (3 Bft)
15.01.2016 07:05 -2,5 C -3,9 C 80 % 1008,3 hPa 0,0 mm 12,2 km/h (2 Bft) W 270 -5,5 C 16,3 km/h (3 Bft)
15.01.2016 07:10 -2,5 C -3,6 C 79 % 1008,3 hPa 0,0 mm 12,9 km/h (3 Bft) NW 315 -5,6 C 16,3 km/h (3 Bft)
15.01.2016 07:15 -2,4 C -3,7 C 74 % 1008,3 hPa 0,0 mm 16,3 km/h (3 Bft) W-SW 247 -6,4 C 24,3 km/h (4 Bft)
15.01.2016 07:20 -2,5 C -3,8 C 72 % 1008,5 hPa 0,0 mm 18,6 km/h (3 Bft) W-NW 292 -6,8 C 15,8 km/h (3 Bft)
15.01.2016 07:25 -2,5 C -3,9 C 71 % 1008,5 hPa 0,0 mm 21,2 km/h (4 Bft) W-SW 247 -7,0 C 69,1 km/h (8 Bft)
15.01.2016 07:30 -2,4 C -4,4 C 70 % 1008,5 hPa 0,0 mm 21,5 km/h (4 Bft) NW 315 -7,1 C 43,5 km/h (6 Bft)
15.01.2016 07:35 -2,3 C -3,7 C 69 % 1008,5 hPa 0,0 mm 22,5 km/h (4 Bft) W 270 -7,2 C 47,4 km/h (6 Bft)
15.01.2016 07:40 -2,3 C -3,7 C 69 % 1008,4 hPa 0,0 mm 23,3 km/h (4 Bft) W-SW 247 -7,2 C 20,5 km/h (4 Bft)
15.01.2016 07:45 -2,3 C -3,7 C 69 % 1008,4 hPa 0,0 mm 19,9 km/h (4 Bft) W-SW 247 -7,2 C 36,0 km/h (5 Bft)
15.01.2016 07:50 -2,4 C -3,6 C 68 % 1008,4 hPa 0,0 mm 16,6 km/h (3 Bft) W-SW 247 -7,5 C 39,1 km/h (6 Bft)
15.01.2016 07:55 -2,4 C -3,6 C 68 % 1008,4 hPa 0,0 mm 16,3 km/h (3 Bft) W 270 -7,5 C 19,7 km/h (3 Bft)
15.01.2016 08:00 -2,5 C -3,7 C 67 % 1008,3 hPa 0,0 mm 15,5 km/h (3 Bft) NW 315 -7,8 C 23,0 km/h (4 Bft)
15.01.2016 08:05 -2,4 C -3,6 C 67 % 1008,3 hPa 0,0 mm 14,2 km/h (3 Bft) W 270 -7,7 C 19,4 km/h (3 Bft)
15.01.2016 08:10 -2,5 C -3,6 C 66 % 1008,3 hPa 0,0 mm 13,7 km/h (3 Bft) N-NW 337 -8,0 C 26,9 km/h (4 Bft)
15.01.2016 08:15 -2,2 C -3,3 C 65 % 1008,3 hPa 0,0 mm 14,2 km/h (3 Bft) S-SW 202 -7,9 C 16,8 km/h (3 Bft)
15.01.2016 08:20 -2,2 C -3,3 C 64 % 1008,1 hPa 0,0 mm 15,3 km/h (3 Bft) W-NW 292 -8,1 C 18,6 km/h (3 Bft)
15.01.2016 08:25 -2,3 C -3,8 C 63 % 1008,1 hPa 0,0 mm 15,5 km/h (3 Bft) W 270 -8,4 C 6,2 km/h (2 Bft)
15.01.2016 08:30 -2,1 C -3,1 C 63 % 1008,1 hPa 0,0 mm 13,2 km/h (3 Bft) NW 315 -8,2 C 12,9 km/h (3 Bft)
15.01.2016 08:35 -1,7 C -2,6 C 62 % 1008,1 hPa 0,0 mm 12,4 km/h (3 Bft) W 270 -8,0 C 15,0 km/h (3 Bft)
15.01.2016 08:40 -1,6 C -2,4 C 61 % 1008,1 hPa 0,0 mm 13,2 km/h (3 Bft) W-SW 247 -8,1 C 23,6 km/h (4 Bft)
15.01.2016 08:45 -1,4 C -2,2 C 59 % 1008,1 hPa 0,0 mm 14,2 km/h (3 Bft) W-SW 247 -8,4 C 18,4 km/h (3 Bft)
15.01.2016 08:50 -1,2 C -2,1 C 59 % 1008,1 hPa 0,0 mm 15,3 km/h (3 Bft) W 270 -8,2 C 16,6 km/h (3 Bft)
15.01.2016 08:55 -1,1 C -1,9 C 59 % 1008,1 hPa 0,0 mm 12,9 km/h (3 Bft) W 270 -8,1 C 20,7 km/h (4 Bft)
15.01.2016 09:00 -1,0 C -1,7 C 58 % 1008,5 hPa 0,0 mm 14,8 km/h (3 Bft) W 270 -8,2 C 37,3 km/h (5 Bft)
15.01.2016 09:05 -1,1 C -1,8 C 58 % 1008,5 hPa 0,0 mm 19,7 km/h (3 Bft) W 270 -8,3 C 16,6 km/h (3 Bft)
15.01.2016 09:10 -1,0 C -1,9 C 58 % 1008,5 hPa 0,0 mm 20,5 km/h (4 Bft) W 270 -8,2 C 24,1 km/h (4 Bft)
15.01.2016 09:15 -1,1 C -2,0 C 58 % 1008,5 hPa 0,0 mm 18,4 km/h (3 Bft) W-NW 292 -8,3 C 10,6 km/h (2 Bft)
15.01.2016 09:20 -1,1 C -1,9 C 58 % 1008,7 hPa 0,0 mm 15,8 km/h (3 Bft) W 270 -8,3 C 14,5 km/h (3 Bft)
15.01.2016 09:25 -1,1 C -1,8 C 58 % 1008,7 hPa 0,0 mm 12,7 km/h (3 Bft) W 270 -8,3 C 12,7 km/h (3 Bft)
15.01.2016 09:30 -1,2 C -1,8 C 59 % 1008,7 hPa 0,0 mm 13,5 km/h (3 Bft) NW 315 -8,2 C 23,3 km/h (4 Bft)
15.01.2016 09:35 -1,4 C -2,1 C 59 % 1008,7 hPa 0,0 mm 15,5 km/h (3 Bft) W-SW 247 -8,4 C 24,9 km/h (4 Bft)
15.01.2016 09:40 -1,5 C -2,3 C 59 % 1008,7 hPa 0,0 mm 17,3 km/h (3 Bft) W 270 -8,4 C 13,2 km/h (3 Bft)
15.01.2016 09:45 -1,6 C -2,5 C 60 % 1008,7 hPa 0,0 mm 17,3 km/h (3 Bft) NW 315 -8,3 C 23,3 km/h (4 Bft)
15.01.2016 09:50 -1,6 C -2,9 C 60 % 1008,7 hPa 0,0 mm 17,1 km/h (3 Bft) W-NW 292 -8,3 C 14,5 km/h (3 Bft)
15.01.2016 09:55 -1,7 C -2,5 C 61 % 1008,7 hPa 0,0 mm 15,8 km/h (3 Bft) NW 315 -8,2 C 22,0 km/h (4 Bft)
15.01.2016 10:00 -1,7 C -2,3 C 62 % 1008,8 hPa 0,0 mm 14,2 km/h (3 Bft) W 270 -8,0 C 13,7 km/h (3 Bft)
15.01.2016 10:05 -1,7 C -2,1 C 63 % 1008,8 hPa 0,0 mm 14,5 km/h (3 Bft) W 270 -7,8 C 10,1 km/h (2 Bft)
15.01.2016 10:10 -1,7 C -2,1 C 64 % 1008,8 hPa 0,0 mm 14,0 km/h (3 Bft) W-NW 292 -7,6 C 20,5 km/h (4 Bft)
15.01.2016 10:15 -1,6 C -1,6 C 65 % 1008,8 hPa 0,0 mm 12,7 km/h (3 Bft) W-SW 247 -7,3 C 15,3 km/h (3 Bft)
15.01.2016 10:20 -1,5 C -1,2 C 65 % 1008,8 hPa 0,0 mm 12,7 km/h (3 Bft) W-SW 247 -7,2 C 19,7 km/h (3 Bft)
15.01.2016 10:25 -1,5 C -1,3 C 66 % 1008,8 hPa 0,0 mm 14,5 km/h (3 Bft) W 270 -7,0 C 16,6 km/h (3 Bft)
15.01.2016 10:30 -1,6 C -1,6 C 66 % 1008,8 hPa 0,0 mm 16,6 km/h (3 Bft) W-SW 247 -7,1 C 17,6 km/h (3 Bft)
15.01.2016 10:35 -1,7 C -2,0 C 67 % 1008,8 hPa 0,0 mm 18,6 km/h (3 Bft) NW 315 -7,0 C 24,3 km/h (4 Bft)
15.01.2016 10:40 -1,9 C -2,5 C 68 % 1008,9 hPa 0,0 mm 17,6 km/h (3 Bft) W-NW 292 -7,0 C 21,2 km/h (4 Bft)
15.01.2016 10:45 -2,0 C -2,2 C 69 % 1008,9 hPa 0,0 mm 18,6 km/h (3 Bft) SW 225 -6,9 C 23,8 km/h (4 Bft)
15.01.2016 10:50 -1,9 C -2,0 C 69 % 1008,9 hPa 0,0 mm 17,9 km/h (3 Bft) SW 225 -6,8 C 16,6 km/h (3 Bft)
15.01.2016 10:55 -2,0 C -2,0 C 70 % 1008,9 hPa 0,0 mm 14,5 km/h (3 Bft) W-SW 247 -6,7 C 18,9 km/h (3 Bft)
15.01.2016 11:00 -2,0 C -2,4 C 70 % 1009,2 hPa 0,0 mm 13,7 km/h (3 Bft) S-SW 202 -6,7 C 9,3 km/h (2 Bft)
15.01.2016 11:05 -2,1 C -2,3 C 71 % 1009,2 hPa 0,0 mm 15,0 km/h (3 Bft) NW 315 -6,6 C 15,0 km/h (3 Bft)
15.01.2016 11:10 -2,1 C -2,4 C 71 % 1009,2 hPa 0,0 mm 15,8 km/h (3 Bft) W-NW 292 -6,6 C 19,9 km/h (4 Bft)
15.01.2016 11:15 -2,3 C -2,3 C 72 % 1009,2 hPa 0,0 mm 15,0 km/h (3 Bft) SW 225 -6,6 C 27,4 km/h (4 Bft)
15.01.2016 11:20 -2,3 C -2,3 C 72 % 1009,3 hPa 0,0 mm 16,1 km/h (3 Bft) W-SW 247 -6,6 C 22,5 km/h (4 Bft)
15.01.2016 11:25 -2,2 C -2,4 C 73 % 1009,3 hPa 0,0 mm 17,9 km/h (3 Bft) W 270 -6,4 C 17,6 km/h (3 Bft)
15.01.2016 11:30 -2,2 C -2,8 C 74 % 1009,3 hPa 0,0 mm 18,9 km/h (3 Bft) W-SW 247 -6,2 C 14,0 km/h (3 Bft)
15.01.2016 11:31 -2,2 C -2,4 C 74 % 1009,3 hPa 0,0 mm 18,9 km/h (3 Bft) W-NW 292 -6,2 C 19,2 km/h (3 Bft)
15.01.2016 11:36 -2,2 C -2,8 C 74 % 1009,3 hPa 0,0 mm 18,9 km/h (3 Bft) W-NW 292 -6,2 C 19,2 km/h (3 Bft)
15.01.2016 11:40 -2,2 C -2,2 C 74 % 1009,3 hPa 0,0 mm 16,8 km/h (3 Bft) W-NW 292 -6,2 C 19,2 km/h (3 Bft)
15.01.2016 11:45 -2,2 C -2,6 C 74 % 1009,3 hPa 0,0 mm 16,1 km/h (3 Bft) W 270 -6,2 C 9,3 km/h (2 Bft)
15.01.2016 11:50 -2,2 C -2,1 C 74 % 1009,3 hPa 0,0 mm 16,1 km/h (3 Bft) N-NW 337 -6,2 C 18,6 km/h (3 Bft)
15.01.2016 11:55 -2,2 C -1,9 C 75 % 1009,3 hPa 0,0 mm 13,5 km/h (3 Bft) W-SW 247 -6,0 C 23,6 km/h (4 Bft)
15.01.2016 12:00 -2,3 C -1,9 C 75 % 1009,3 hPa 0,0 mm 15,0 km/h (3 Bft) W-SW 247 -6,1 C 19,2 km/h (3 Bft)
15.01.2016 12:05 -2,1 C -1,9 C 75 % 1009,3 hPa 0,0 mm 16,3 km/h (3 Bft) W-SW 247 -5,9 C 27,2 km/h (4 Bft)
15.01.2016 12:10 -2,1 C -1,9 C 75 % 1009,3 hPa 0,0 mm 18,1 km/h (3 Bft) W-NW 292 -5,9 C 25,4 km/h (4 Bft)
15.01.2016 12:15 -2,1 C -1,8 C 74 % 1009,3 hPa 0,0 mm 17,9 km/h (3 Bft) W-NW 292 -6,1 C 32,6 km/h (5 Bft)
15.01.2016 12:20 -2,1 C -1,9 C 74 % 1009,4 hPa 0,0 mm 16,6 km/h (3 Bft) W 270 -6,1 C 27,4 km/h (4 Bft)
15.01.2016 12:25 -2,3 C -2,1 C 74 % 1009,4 hPa 0,0 mm 18,4 km/h (3 Bft) W 270 -6,3 C 24,3 km/h (4 Bft)
15.01.2016 12:30 -2,3 C -2,3 C 74 % 1009,4 hPa 0,0 mm 19,9 km/h (4 Bft) NW 315 -6,3 C 43,5 km/h (6 Bft)
15.01.2016 12:35 -2,3 C -2,3 C 74 % 1009,4 hPa 0,0 mm 19,9 km/h (4 Bft) W-SW 247 -6,3 C 28,2 km/h (4 Bft)
15.01.2016 12:40 -2,3 C -2,4 C 74 % 1009,3 hPa 0,0 mm 18,6 km/h (3 Bft) W-NW 292 -6,3 C 17,3 km/h (3 Bft)
15.01.2016 12:45 -2,3 C -2,5 C 74 % 1009,3 hPa 0,0 mm 17,6 km/h (3 Bft) W 270 -6,3 C 17,3 km/h (3 Bft)
15.01.2016 12:50 -2,3 C -2,4 C 74 % 1009,3 hPa 0,0 mm 16,1 km/h (3 Bft) W-SW 247 -6,3 C 15,5 km/h (3 Bft)
15.01.2016 12:55 -2,3 C -2,4 C 74 % 1009,3 hPa 0,0 mm 15,0 km/h (3 Bft) W-NW 292 -6,3 C 17,3 km/h (3 Bft)
15.01.2016 13:00 -2,3 C -2,2 C 74 % 1009,4 hPa 0,0 mm 14,2 km/h (3 Bft) NW 315 -6,3 C 12,9 km/h (3 Bft)
15.01.2016 13:05 -2,0 C -1,9 C 73 % 1009,4 hPa 0,0 mm 13,2 km/h (3 Bft) W 270 -6,2 C 18,4 km/h (3 Bft)
15.01.2016 13:10 -2,0 C -1,8 C 73 % 1009,4 hPa 0,0 mm 13,5 km/h (3 Bft) W-NW 292 -6,2 C 18,6 km/h (3 Bft)
15.01.2016 13:15 -1,9 C -1,8 C 72 % 1009,4 hPa 0,0 mm 14,0 km/h (3 Bft) W-SW 247 -6,3 C 32,1 km/h (5 Bft)
15.01.2016 13:20 -1,9 C -2,0 C 71 % 1009,2 hPa 0,0 mm 15,3 km/h (3 Bft) W 270 -6,4 C 16,8 km/h (3 Bft)
15.01.2016 13:25 -1,7 C -2,0 C 69 % 1009,2 hPa 0,0 mm 18,4 km/h (3 Bft) W 270 -6,6 C 29,0 km/h (5 Bft)
15.01.2016 13:30 -1,7 C -2,0 C 69 % 1009,2 hPa 0,0 mm 18,6 km/h (3 Bft) W 270 -6,6 C 12,7 km/h (3 Bft)
15.01.2016 13:35 -1,6 C -2,0 C 68 % 1009,2 hPa 0,0 mm 18,4 km/h (3 Bft) NW 315 -6,7 C 14,5 km/h (3 Bft)
15.01.2016 13:40 -1,6 C -2,5 C 67 % 1009,3 hPa 0,0 mm 18,4 km/h (3 Bft) W-SW 247 -6,9 C 34,2 km/h (5 Bft)
15.01.2016 13:45 -1,7 C -2,1 C 66 % 1009,3 hPa 0,0 mm 19,2 km/h (3 Bft) W 270 -7,2 C 17,3 km/h (3 Bft)
15.01.2016 13:50 -1,7 C -2,2 C 66 % 1009,3 hPa 0,0 mm 19,7 km/h (3 Bft) W-SW 247 -7,2 C 12,7 km/h (3 Bft)
15.01.2016 13:55 -1,6 C -1,8 C 66 % 1009,3 hPa 0,0 mm 16,8 km/h (3 Bft) W-SW 247 -7,1 C 17,9 km/h (3 Bft)
15.01.2016 14:00 -1,5 C -1,7 C 66 % 1009,1 hPa 0,0 mm 16,6 km/h (3 Bft) W-NW 292 -7,0 C 43,2 km/h (6 Bft)
15.01.2016 14:05 -1,5 C -1,8 C 65 % 1009,1 hPa 0,0 mm 18,6 km/h (3 Bft) SW 225 -7,2 C 15,8 km/h (3 Bft)
15.01.2016 14:10 -1,5 C -1,7 C 65 % 1009,1 hPa 0,0 mm 17,6 km/h (3 Bft) W 270 -7,2 C 8,8 km/h (2 Bft)
15.01.2016 14:15 -1,5 C -1,6 C 64 % 1009,1 hPa 0,0 mm 19,7 km/h (3 Bft) NW 315 -7,4 C 26,2 km/h (4 Bft)
15.01.2016 14:20 -1,5 C -2,1 C 64 % 1009,0 hPa 0,0 mm 20,5 km/h (4 Bft) W-SW 247 -7,4 C 31,1 km/h (5 Bft)
15.01.2016 14:25 -1,5 C -1,8 C 63 % 1009,0 hPa 0,0 mm 21,0 km/h (4 Bft) W-SW 247 -7,6 C 14,5 km/h (3 Bft)
15.01.2016 14:30 -1,4 C -1,6 C 62 % 1009,0 hPa 0,0 mm 19,9 km/h (4 Bft) NW 315 -7,7 C 14,8 km/h (3 Bft)
15.01.2016 14:35 -1,4 C -1,6 C 61 % 1009,0 hPa 0,0 mm 17,1 km/h (3 Bft) W 270 -7,9 C 25,4 km/h (4 Bft)
15.01.2016 14:40 -1,4 C -1,7 C 60 % 1009,0 hPa 0,0 mm 18,4 km/h (3 Bft) W-SW 247 -8,1 C 32,4 km/h (5 Bft)
15.01.2016 14:45 -1,5 C -2,0 C 59 % 1009,0 hPa 0,0 mm 18,4 km/h (3 Bft) W 270 -8,4 C 26,7 km/h (4 Bft)
15.01.2016 14:50 -1,5 C -2,1 C 59 % 1009,0 hPa 0,0 mm 19,2 km/h (3 Bft) W-SW 247 -8,4 C 18,4 km/h (3 Bft)
15.01.2016 14:55 -1,5 C -2,3 C 59 % 1009,0 hPa 0,0 mm 18,9 km/h (3 Bft) W 270 -8,4 C 18,1 km/h (3 Bft)
15.01.2016 15:00 -1,6 C -2,3 C 59 % 1009,0 hPa 0,0 mm 20,2 km/h (4 Bft) SW 225 -8,5 C 16,8 km/h (3 Bft)
15.01.2016 15:05 -1,5 C -2,3 C 58 % 1009,0 hPa 0,0 mm 22,3 km/h (4 Bft) W-SW 247 -8,7 C 30,8 km/h (5 Bft)
15.01.2016 15:10 -1,5 C -2,3 C 58 % 1009,0 hPa 0,0 mm 21,0 km/h (4 Bft) W 270 -8,7 C 25,9 km/h (4 Bft)
15.01.2016 15:15 -1,4 C -2,1 C 57 % 1009,0 hPa 0,0 mm 20,5 km/h (4 Bft) W-NW 292 -8,8 C 19,4 km/h (3 Bft)
15.01.2016 15:20 -1,2 C -2,1 C 57 % 1009,1 hPa 0,0 mm 19,7 km/h (3 Bft) W 270 -8,6 C 32,9 km/h (5 Bft)
15.01.2016 15:25 -1,2 C -1,9 C 57 % 1009,1 hPa 0,0 mm 18,4 km/h (3 Bft) W-SW 247 -8,6 C 25,6 km/h (4 Bft)
15.01.2016 15:30 -1,2 C -2,0 C 57 % 1009,1 hPa 0,0 mm 18,9 km/h (3 Bft) W-NW 292 -8,6 C 14,0 km/h (3 Bft)
15.01.2016 15:35 -1,4 C -2,0 C 57 % 1009,1 hPa 0,0 mm 20,2 km/h (4 Bft) SW 225 -8,8 C 20,5 km/h (4 Bft)
15.01.2016 15:40 -1,2 C -2,5 C 56 % 1009,2 hPa 0,0 mm 20,2 km/h (4 Bft) NW 315 -8,8 C 31,6 km/h (5 Bft)
15.01.2016 15:45 -1,5 C -2,2 C 56 % 1009,2 hPa 0,0 mm 20,7 km/h (4 Bft) NW 315 -9,1 C 30,3 km/h (5 Bft)
15.01.2016 15:50 -1,4 C -2,2 C 56 % 1009,2 hPa 0,0 mm 21,5 km/h (4 Bft) W-NW 292 -9,0 C 18,1 km/h (3 Bft)
15.01.2016 15:55 -1,2 C -2,3 C 56 % 1009,2 hPa 0,7 mm 22,5 km/h (4 Bft) W-SW 247 -8,8 C 24,6 km/h (4 Bft)
15.01.2016 16:00 -1,2 C -2,3 C 56 % 1009,6 hPa 0,0 mm 20,7 km/h (4 Bft) W 270 -8,8 C 27,2 km/h (4 Bft)
15.01.2016 16:05 -1,2 C -2,2 C 55 % 1009,6 hPa 0,0 mm 18,6 km/h (3 Bft) W 270 -9,1 C 36,0 km/h (5 Bft)
15.01.2016 16:10 -1,2 C -2,3 C 55 % 1009,6 hPa 0,0 mm 19,7 km/h (3 Bft) W-NW 292 -9,1 C 24,1 km/h (4 Bft)
15.01.2016 16:15 -1,2 C -2,3 C 55 % 1009,6 hPa 0,0 mm 23,8 km/h (4 Bft) W 270 -9,1 C 23,0 km/h (4 Bft)
15.01.2016 16:20 -1,1 C -2,3 C 55 % 1009,5 hPa 0,0 mm 23,6 km/h (4 Bft) W 270 -9,0 C 26,9 km/h (4 Bft)
15.01.2016 16:25 -1,4 C -2,3 C 55 % 1009,5 hPa 0,0 mm 22,5 km/h (4 Bft) W-SW 247 -9,2 C 21,2 km/h (4 Bft)
15.01.2016 16:30 -1,3 C -2,9 C 55 % 1009,5 hPa 0,0 mm 21,5 km/h (4 Bft) NW 315 -9,2 C 24,9 km/h (4 Bft)
15.01.2016 16:35 -1,3 C -2,4 C 55 % 1009,5 hPa 0,0 mm 19,9 km/h (4 Bft) W-NW 292 -9,2 C 26,7 km/h (4 Bft)
15.01.2016 16:40 -1,3 C -2,4 C 55 % 1009,4 hPa 0,0 mm 20,2 km/h (4 Bft) S 180 -9,2 C 15,8 km/h (3 Bft)
15.01.2016 16:45 -1,2 C -2,3 C 55 % 1009,4 hPa 0,0 mm 17,9 km/h (3 Bft) W-SW 247 -9,1 C 24,6 km/h (4 Bft)
15.01.2016 16:50 -1,2 C -2,7 C 55 % 1009,4 hPa 0,0 mm 17,9 km/h (3 Bft) W 270 -9,1 C 24,1 km/h (4 Bft)
15.01.2016 16:55 -1,1 C -2,7 C 54 % 1009,4 hPa 0,0 mm 18,6 km/h (3 Bft) NW 315 -9,2 C 21,2 km/h (4 Bft)
15.01.2016 17:00 -1,1 C -2,2 C 54 % 1009,7 hPa 0,0 mm 18,1 km/h (3 Bft) W-NW 292 -9,2 C 37,0 km/h (5 Bft)
15.01.2016 17:05 -1,1 C -2,2 C 54 % 1009,7 hPa 0,0 mm 17,3 km/h (3 Bft) W 270 -9,2 C 28,5 km/h (4 Bft)
15.01.2016 17:10 -1,2 C -2,7 C 54 % 1009,7 hPa 0,0 mm 17,1 km/h (3 Bft) NW 315 -9,3 C 38,6 km/h (5 Bft)
15.01.2016 17:15 -1,1 C -2,2 C 53 % 1009,7 hPa 0,0 mm 20,2 km/h (4 Bft) W 270 -9,4 C 37,5 km/h (5 Bft)
15.01.2016 17:20 -1,1 C -2,3 C 53 % 1009,9 hPa 0,0 mm 23,3 km/h (4 Bft) W 270 -9,4 C 33,9 km/h (5 Bft)
15.01.2016 17:25 -1,1 C -2,4 C 53 % 1009,9 hPa 0,0 mm 24,9 km/h (4 Bft) W 270 -9,4 C 37,5 km/h (5 Bft)
15.01.2016 17:30 -1,3 C -3,1 C 54 % 1009,9 hPa 0,0 mm 24,6 km/h (4 Bft) W 270 -9,4 C 32,9 km/h (5 Bft)
15.01.2016 17:35 -1,4 C -2,6 C 55 % 1009,9 hPa 0,0 mm 24,6 km/h (4 Bft) W 270 -9,2 C 19,7 km/h (3 Bft)
15.01.2016 17:36 -1,4 C -2,7 C 55 % 1010,0 hPa 0,0 mm 25,1 km/h (4 Bft) W-NW 292 -9,2 C 39,9 km/h (6 Bft)
15.01.2016 17:37 -1,4 C -3,2 C 55 % 1010,0 hPa 0,0 mm 25,1 km/h (4 Bft) W-NW 292 -9,2 C 39,9 km/h (6 Bft)
15.01.2016 17:40 -1,4 C -3,2 C 55 % 1010,0 hPa 0,0 mm 25,1 km/h (4 Bft) W-NW 292 -9,2 C 39,9 km/h (6 Bft)
15.01.2016 17:45 -1,4 C -2,7 C 55 % 1010,0 hPa 0,0 mm 23,8 km/h (4 Bft) W-NW 292 -9,2 C 32,1 km/h (5 Bft)
15.01.2016 17:50 -1,5 C -2,7 C 55 % 1010,0 hPa 0,0 mm 21,8 km/h (4 Bft) W-NW 292 -9,3 C 23,6 km/h (4 Bft)
15.01.2016 17:55 -1,5 C -2,7 C 56 % 1010,0 hPa 0,0 mm 19,9 km/h (4 Bft) W 270 -9,1 C 25,9 km/h (4 Bft)
15.01.2016 18:00 -1,6 C -2,7 C 56 % 1010,0 hPa 0,0 mm 20,7 km/h (4 Bft) W 270 -9,2 C 18,4 km/h (3 Bft)
15.01.2016 18:05 -1,6 C -2,8 C 56 % 1010,0 hPa 0,0 mm 23,6 km/h (4 Bft) W-SW 247 -9,2 C 44,3 km/h (6 Bft)
15.01.2016 18:10 -1,7 C -2,9 C 56 % 1010,0 hPa 0,0 mm 22,3 km/h (4 Bft) N-NW 337 -9,3 C 17,3 km/h (3 Bft)
15.01.2016 18:15 -1,6 C -2,8 C 56 % 1010,0 hPa 0,0 mm 20,2 km/h (4 Bft) W-SW 247 -9,2 C 31,1 km/h (5 Bft)
15.01.2016 18:20 -1,7 C -2,9 C 56 % 1010,3 hPa 0,0 mm 19,7 km/h (3 Bft) W 270 -9,3 C 22,3 km/h (4 Bft)
15.01.2016 18:25 -1,6 C -3,3 C 56 % 1010,3 hPa 0,0 mm 19,4 km/h (3 Bft) W 270 -9,2 C 23,3 km/h (4 Bft)
15.01.2016 18:30 -1,7 C -2,8 C 56 % 1010,3 hPa 0,0 mm 16,3 km/h (3 Bft) W 270 -9,3 C 30,8 km/h (5 Bft)
15.01.2016 18:35 -1,7 C -2,8 C 56 % 1010,3 hPa 0,0 mm 17,9 km/h (3 Bft) W-SW 247 -9,3 C 22,5 km/h (4 Bft)
15.01.2016 18:40 -1,8 C -2,9 C 56 % 1010,3 hPa 0,0 mm 19,2 km/h (3 Bft) W-SW 247 -9,4 C 24,9 km/h (4 Bft)
15.01.2016 18:45 -1,8 C -2,9 C 56 % 1010,3 hPa 0,0 mm 16,8 km/h (3 Bft) N-NO 22 -9,4 C 21,5 km/h (4 Bft)
15.01.2016 18:50 -1,8 C -2,9 C 56 % 1010,3 hPa 0,0 mm 18,1 km/h (3 Bft) W-NW 292 -9,4 C 38,8 km/h (5 Bft)
15.01.2016 18:55 -1,8 C -3,0 C 56 % 1010,3 hPa 0,0 mm 18,9 km/h (3 Bft) W-NW 292 -9,4 C 18,9 km/h (3 Bft)
15.01.2016 19:00 -1,9 C -3,1 C 56 % 1010,3 hPa 0,0 mm 19,7 km/h (3 Bft) W-SW 247 -9,5 C 25,4 km/h (4 Bft)
15.01.2016 19:05 -1,9 C -3,1 C 56 % 1010,3 hPa 0,0 mm 17,9 km/h (3 Bft) NW 315 -9,5 C 15,3 km/h (3 Bft)
15.01.2016 19:10 -1,9 C -3,0 C 56 % 1010,3 hPa 0,0 mm 16,3 km/h (3 Bft) W 270 -9,5 C 25,1 km/h (4 Bft)
15.01.2016 19:15 -1,8 C -3,0 C 56 % 1010,3 hPa 0,0 mm 17,1 km/h (3 Bft) W 270 -9,4 C 27,4 km/h (4 Bft)
15.01.2016 19:20 -1,9 C -3,1 C 56 % 1010,3 hPa 0,0 mm 19,4 km/h (3 Bft) W 270 -9,5 C 24,9 km/h (4 Bft)
15.01.2016 19:25 -2,0 C -3,2 C 56 % 1010,3 hPa 0,0 mm 18,1 km/h (3 Bft) N-NW 337 -9,6 C 13,5 km/h (3 Bft)
15.01.2016 19:30 -2,0 C -3,1 C 57 % 1010,3 hPa 0,0 mm 16,6 km/h (3 Bft) W-NW 292 -9,4 C 15,0 km/h (3 Bft)
15.01.2016 19:35 -2,0 C -3,1 C 56 % 1010,3 hPa 0,0 mm 16,3 km/h (3 Bft) W 270 -9,6 C 29,8 km/h (5 Bft)
15.01.2016 19:40 -2,0 C -3,1 C 57 % 1010,4 hPa 0,0 mm 18,1 km/h (3 Bft) W 270 -9,4 C 34,4 km/h (5 Bft)
15.01.2016 19:45 -1,9 C -3,6 C 57 % 1010,4 hPa 0,0 mm 18,6 km/h (3 Bft) SW 225 -9,3 C 15,3 km/h (3 Bft)
15.01.2016 19:50 -1,9 C -3,0 C 57 % 1010,4 hPa 0,0 mm 16,8 km/h (3 Bft) W 270 -9,3 C 19,4 km/h (3 Bft)
15.01.2016 19:55 -1,9 C -3,0 C 58 % 1010,4 hPa 0,0 mm 20,5 km/h (4 Bft) W 270 -9,0 C 29,0 km/h (5 Bft)
15.01.2016 20:00 -1,8 C -3,1 C 58 % 1010,5 hPa 0,0 mm 21,8 km/h (4 Bft) W-SW 247 -8,9 C 16,1 km/h (3 Bft)
15.01.2016 20:05 -2,0 C -3,2 C 58 % 1010,5 hPa 0,0 mm 20,2 km/h (4 Bft) W 270 -9,1 C 19,9 km/h (4 Bft)
15.01.2016 20:10 -2,0 C -3,2 C 59 % 1010,5 hPa 0,0 mm 18,6 km/h (3 Bft) W 270 -8,9 C 24,6 km/h (4 Bft)
15.01.2016 20:15 -2,1 C -3,2 C 59 % 1010,5 hPa 0,0 mm 17,6 km/h (3 Bft) NW 315 -9,0 C 16,6 km/h (3 Bft)
15.01.2016 20:20 -2,1 C -3,3 C 59 % 1010,7 hPa 0,0 mm 19,7 km/h (3 Bft) W-NW 292 -9,0 C 33,7 km/h (5 Bft)
15.01.2016 20:25 -2,1 C -3,3 C 60 % 1010,7 hPa 0,0 mm 19,7 km/h (3 Bft) W-SW 247 -8,8 C 15,5 km/h (3 Bft)
15.01.2016 20:30 -2,2 C -3,4 C 60 % 1010,7 hPa 0,0 mm 17,9 km/h (3 Bft) W-NW 292 -8,9 C 12,7 km/h (3 Bft)
15.01.2016 20:35 -2,3 C -3,9 C 61 % 1010,7 hPa 0,0 mm 16,8 km/h (3 Bft) W 270 -8,8 C 26,7 km/h (4 Bft)
15.01.2016 20:40 -2,3 C -3,5 C 60 % 1010,6 hPa 0,0 mm 17,6 km/h (3 Bft) W-SW 247 -9,0 C 17,3 km/h (3 Bft)
15.01.2016 20:45 -2,3 C -3,5 C 60 % 1010,6 hPa 0,0 mm 17,6 km/h (3 Bft) W-NW 292 -9,0 C 15,3 km/h (3 Bft)
15.01.2016 20:50 -2,3 C -3,5 C 60 % 1010,6 hPa 0,0 mm 16,6 km/h (3 Bft) W 270 -9,0 C 21,2 km/h (4 Bft)
15.01.2016 20:55 -2,4 C -3,5 C 60 % 1010,6 hPa 0,0 mm 14,5 km/h (3 Bft) W 270 -9,1 C 36,8 km/h (5 Bft)
15.01.2016 21:00 -2,2 C -3,7 C 61 % 1010,9 hPa 0,0 mm 15,0 km/h (3 Bft) W 270 -8,7 C 23,3 km/h (4 Bft)
15.01.2016 21:05 -2,1 C -3,3 C 61 % 1010,9 hPa 0,0 mm 19,4 km/h (3 Bft) W 270 -8,6 C 23,6 km/h (4 Bft)
15.01.2016 21:10 -2,1 C -3,3 C 61 % 1010,9 hPa 0,0 mm 20,7 km/h (4 Bft) W-NW 292 -8,6 C 19,9 km/h (4 Bft)
15.01.2016 21:15 -2,1 C -3,3 C 62 % 1010,9 hPa 0,0 mm 20,5 km/h (4 Bft) W 270 -8,4 C 37,8 km/h (5 Bft)
15.01.2016 21:20 -2,1 C -3,3 C 62 % 1011,2 hPa 0,0 mm 18,4 km/h (3 Bft) SW 225 -8,4 C 17,3 km/h (3 Bft)
15.01.2016 21:25 -2,1 C -3,7 C 64 % 1011,2 hPa 0,0 mm 18,1 km/h (3 Bft) W 270 -8,0 C 25,6 km/h (4 Bft)
15.01.2016 21:30 -2,1 C -3,7 C 65 % 1011,2 hPa 0,0 mm 17,9 km/h (3 Bft) W-SW 247 -7,8 C 15,0 km/h (3 Bft)
15.01.2016 21:35 -2,2 C -3,8 C 66 % 1011,2 hPa 0,0 mm 18,4 km/h (3 Bft) NW 315 -7,7 C 25,4 km/h (4 Bft)
15.01.2016 21:40 -2,3 C -3,4 C 66 % 1011,4 hPa 0,0 mm 16,3 km/h (3 Bft) W-SW 247 -7,8 C 15,5 km/h (3 Bft)
15.01.2016 21:45 -2,3 C -3,3 C 67 % 1011,4 hPa 0,0 mm 15,3 km/h (3 Bft) W 270 -7,6 C 28,5 km/h (4 Bft)
15.01.2016 21:50 -2,3 C -3,2 C 67 % 1011,4 hPa 0,0 mm 13,7 km/h (3 Bft) NW 315 -7,6 C 14,5 km/h (3 Bft)
15.01.2016 21:55 -2,2 C -3,2 C 67 % 1011,4 hPa 0,0 mm 15,3 km/h (3 Bft) W 270 -7,5 C 24,6 km/h (4 Bft)
15.01.2016 22:00 -2,2 C -3,2 C 67 % 1011,5 hPa 0,0 mm 16,6 km/h (3 Bft) W-NW 292 -7,5 C 30,6 km/h (5 Bft)
15.01.2016 22:05 -2,2 C -3,3 C 66 % 1011,5 hPa 0,0 mm 17,9 km/h (3 Bft) W 270 -7,7 C 21,2 km/h (4 Bft)
15.01.2016 22:10 -2,2 C -3,3 C 66 % 1011,5 hPa 0,0 mm 16,1 km/h (3 Bft) W-NW 292 -7,7 C 22,0 km/h (4 Bft)
15.01.2016 22:15 -2,2 C -3,2 C 67 % 1011,5 hPa 0,0 mm 15,5 km/h (3 Bft) W 270 -7,5 C 17,6 km/h (3 Bft)
15.01.2016 22:20 -2,2 C -3,2 C 67 % 1011,5 hPa 0,0 mm 15,0 km/h (3 Bft) W-NW 292 -7,5 C 21,5 km/h (4 Bft)
15.01.2016 22:25 -2,2 C -3,2 C 68 % 1011,5 hPa 0,0 mm 15,8 km/h (3 Bft) SW 225 -7,3 C 12,7 km/h (3 Bft)
15.01.2016 22:30 -2,3 C -3,3 C 68 % 1011,5 hPa 0,0 mm 17,1 km/h (3 Bft) W-SW 247 -7,4 C 28,5 km/h (4 Bft)
15.01.2016 22:35 -2,4 C -3,4 C 70 % 1011,5 hPa 0,0 mm 14,8 km/h (3 Bft) NW 315 -7,1 C 27,4 km/h (4 Bft)
15.01.2016 22:40 -2,5 C -3,4 C 71 % 1011,8 hPa 0,0 mm 13,2 km/h (3 Bft) W-NW 292 -7,0 C 19,2 km/h (3 Bft)
15.01.2016 22:45 -2,6 C -3,5 C 73 % 1011,8 hPa 0,0 mm 12,7 km/h (3 Bft) W-SW 247 -6,8 C 9,3 km/h (2 Bft)
15.01.2016 22:50 -2,7 C -3,9 C 74 % 1011,8 hPa 0,0 mm 12,4 km/h (3 Bft) W 270 -6,7 C 11,9 km/h (2 Bft)
15.01.2016 23:00 -2,7 C -3,9 C 75 % 1012,1 hPa 0,0 mm 11,1 km/h (2 Bft) W-SW 247 -6,5 C 12,2 km/h (2 Bft)
15.01.2016 23:05 -2,8 C -3,8 C 76 % 1012,1 hPa 0,0 mm 9,3 km/h (2 Bft) W-SW 247 -6,4 C 14,0 km/h (3 Bft)
15.01.2016 23:10 -2,8 C -3,8 C 76 % 1012,1 hPa 0,0 mm 8,8 km/h (2 Bft) NW 315 -6,4 C 6,7 km/h (2 Bft)
15.01.2016 23:15 -2,8 C -3,8 C 77 % 1012,1 hPa 0,0 mm 9,1 km/h (2 Bft) W-SW 247 -6,3 C 11,4 km/h (2 Bft)
15.01.2016 23:20 -2,8 C -3,8 C 78 % 1012,0 hPa 0,0 mm 9,3 km/h (2 Bft) W 270 -6,1 C 9,3 km/h (2 Bft)
15.01.2016 23:25 -2,9 C -3,9 C 79 % 1012,0 hPa 0,0 mm 9,6 km/h (2 Bft) W-NW 292 -6,0 C 13,7 km/h (3 Bft)
15.01.2016 23:30 -2,9 C -4,0 C 79 % 1012,0 hPa 0,0 mm 10,1 km/h (2 Bft) NW 315 -6,0 C 16,8 km/h (3 Bft)
15.01.2016 23:35 -2,9 C -4,1 C 79 % 1012,0 hPa 0,0 mm 11,4 km/h (2 Bft) W 270 -6,0 C 9,8 km/h (2 Bft)
15.01.2016 23:36 -2,9 C -4,1 C 79 % 1012,2 hPa 0,0 mm 11,4 km/h (2 Bft) W 270 -6,0 C 12,9 km/h (3 Bft)
15.01.2016 23:38 -2,9 C -4,1 C 79 % 1012,2 hPa 0,0 mm 11,4 km/h (2 Bft) W 270 -6,0 C 12,9 km/h (3 Bft)
15.01.2016 23:40 -2,9 C -4,1 C 79 % 1012,2 hPa 0,0 mm 11,4 km/h (2 Bft) W 270 -6,0 C 12,9 km/h (3 Bft)
15.01.2016 23:45 -2,9 C -3,9 C 80 % 1012,2 hPa 0,0 mm 9,3 km/h (2 Bft) S 180 -5,9 C 9,1 km/h (2 Bft)
15.01.2016 23:50 -3,0 C -4,1 C 80 % 1012,2 hPa 0,0 mm 10,1 km/h (2 Bft) W-NW 292 -6,0 C 17,3 km/h (3 Bft)
15.01.2016 23:55 -3,0 C -4,1 C 80 % 1012,2 hPa 0,0 mm 10,4 km/h (2 Bft) W 270 -6,0 C 10,9 km/h (2 Bft)
_ Min-Zeit 23:55 07:30 17:25 06:35 - 03:50 - - 19:35 03:45
Minimum _ -3,0 C -4,4 C 53 % 1008,0 hPa - 2,6 km/h (1 Bft) - - -9,6 C 2,8 km/h (1 Bft)
_ Max-Zeit 00:05 00:00 00:05 23:55 15:55 17:40 - - 00:05 07:25
Maximum _ -0,2 C -0,6 C 87 % 1012,2 hPa 0,7 mm 25,1 km/h
W-NW (4 Bft)
- - -2,1 C 69,1 km/h
W-SW (8 Bft)
Durchschnitt _ -1,7 C -2,5 C 68 % 1009,5 hPa #0,7 mm 14,7 km/h (3 Bft) W - -6,9 C 19,2 km/h (3 Bft)